sat.trackr.live / text

‹ back to catalog

STARLINK-11566 [DTC]

NORAD 62914 · 2025-027H

PAYLOAD ACTIVE UNKNOWN

§ Identity

Operator
Country
US
Launch date
2025-02-08
Launch site
AFETR
Launch vehicle
Mass (kg)
RCS (m²)

Purposes: comms

External: N2YO · Heavens-Above · Gunter

§ Orbital elements

Epoch: 2026-05-24T18:19:13.781280Z

Period
91.67 min
Inclination
43.0035°
Eccentricity
0.0003400
Mean motion
15.70920669 rev/d
Perigee alt
354.0 km
Apogee alt
358.6 km
Semi-major
6,734.4 km
B*
1.4860e-3
RAAN
249.3740°
Arg perigee
272.4447°
Mean anomaly
87.6031°
Rev number
7,515

§ Raw data

STARLINK-11566 [DTC]1 62914U 25027H   26144.76335395  .00195469  00000+0  14860-2 0  99902 62914  43.0035 249.3740 0003400 272.4447  87.6031 15.70920669 75153

JSON: /api/v1/satellites/62914 · /tle

For live sub-satellite position, see the globe view (requires WebGL).

§ Visibility from observer

Set your observer location to see the next 7 days of passes ≥ 10°. The values pass through the URL so the page stays shareable.

No JS? Fill the form by hand. The geolocation button needs JavaScript.